Regional Weather Roundup
Issued by NWS Newport/Morehead, NC

Current Version | Previous Version | Graphics & Text | Print | Product List | Glossary On
Versions: 1 2 3 4 5 6 7 8 9 10 11 12 13 14 15 16 17 18 19 20 21 22 23 24 25 26 27 28 29 30 31 32 33 34 35 36 37 38 39 40 41 42 43 44 45 46 47 48 49 50
000 ASUS42 KMHX 211410 RWRMHX WEATHER ROUNDUP FOR EASTERN NORTH CAROLINA NATIONAL WEATHER SERVICE NEWPORT/MOREHEAD CITY NC 1000 AM EDT TUE OCT 21 2014 NOTE: "FAIR" INDICATES FEW OR NO CLOUDS BELOW 12,000 FEET WITH NO SIGNIFICANT WEATHER AND/OR OBSTRUCTIONS TO VISIBILITY NCZ015>017-031-032-045>047-102-103-211500- NORTH COAST CITY SKY/WX TMP DP RH WIND PRES REMARKS EDENTON SUNNY 66 58 76 W7 29.92F ELIZABETH CITY SUNNY 69 57 65 SW7 29.91F KITTY HAWK MOSUNNY 67 62 83 W5 29.91S MANTEO MOSUNNY 66 61 81 SW5 29.92S $$ NCZ045>047-081-094-103-104-211500- CENTRAL COAST CITY SKY/WX TMP DP RH WIND PRES REMARKS FRISCO SUNNY 70 64 81 W6 29.92F SWANQUARTER N/A 68 N/A N/A W6 29.88S $$ NCZ095-097-098-100-101-211500- SOUTHERN COAST CITY SKY/WX TMP DP RH WIND PRES REMARKS BEAUFORT SUNNY 68 60 75 W7 29.94S CEDAR ISLAND N/A 68 N/A N/A SW7 29.97S JACKSONVILLE SUNNY 67 58 72 W6 29.93F PINEY ISLAND SUNNY 66 60 81 W7 29.93F WILMINGTON SUNNY 69 59 70 W6 29.95S $$ NCZ011>013-027>030-043-044-078>080-089-090>093-098-211500- COASTAL PLAIN CITY SKY/WX TMP DP RH WIND PRES REMARKS AHOSKIE MOSUNNY 62 55 78 CALM 29.93S CLINTON SUNNY 64 57 78 SW3 29.94F ELIZABETHTOWN SUNNY 65 56 70 W6 29.95S GOLDSBORO SUNNY 64 62 96 CALM 29.92F GREENVILLE MOSUNNY 64 55 72 W3 29.96S HAVELOCK SUNNY 69 58 67 W7 29.94F KENANSVILLE SUNNY 65 57 75 CALM 29.95F KINSTON SUNNY 66 57 72 W3 29.94F NEW BERN SUNNY 69 59 70 VRB3 29.95S RICHLANDS SUNNY 64 55 72 W5 29.95S ROCKY MOUNT MOSUNNY 64 54 69 SW5 29.93F WASHINGTON SUNNY 65 57 77 W5 29.94S WHITEVILLE SUNNY 66 56 68 CALM 29.95S $$ AMZ130-135-150-152-154-156-158-170-250-252-270-ANZ085-086-088-633-658-670-211500- MARINE OBSERVATIONS STATION/POSITION TIME TEMP WIND PRES WAVE SWELL AIR SEA DIR/SP/G HT/PER HT/PER (UTC) (F) (DEG/KT/KT) (MB) (FT/S) (FT/S) CHESAPEAKE LIGHT 1300 64 240/ 13/ 14 1013.3 64 E VA BEACH 1400 68 69 220/ 14/ 16 1012.0 4/ 5 2/10 DUCK 1400 66 69 240/ 7/ 9 1012.1 2 E DUCK 1400 N/A 2/11 2/11 10 NE DUCK 1400 71 N/A 2/13 2/13 OREGON INLET 1400 66 66 240/ 8/ 9 1013.0 13E OREGON INLT 1400 74 N/A 2/13 2/13 HATTERAS CG 1400 68 71 280/ 11/ 12 1013.6 DIAMOND BUOY 1400 70 290/ 12/ 16 1013.5 3/ 5 2/ 9 17 S OCRACOKE NOT AVBL CAPE LOOKOUT 1300 69 280/ 9/ 10 1013.8 BEAUFORT LAB 1400 68 70 310/ 5/ 7 1013.2 30 SE NEW RIVER 1400 70 76 310/ 8/ 10 1013.4 2/ 4 2/ 4 5 SE WRIGHTSVLE 1400 66 73 300/ 8/ 10 N/A 225 S CAPE HAT 1257 72 80 140/ 10/ 12 1015.5 3/ 8 3/ 8 41 SE CHARLESTON 1400 74 79 310/ 8/ 10 1014.3 2/ 8 2/ 8 $$

USA.gov is the U.S. government's official web portal to all federal, state and local government web resources and services.